Oroville, CA

2:55 PM PDT on October 23, 2019 (GMT -0700)
Oroville Municipal

Weather History for KOVE - September, 2019

Change the Weather History Date:

Sunday, September 15, 2019

  Actual Average Record
Temperature  
Mean Temperature 76 °F -  
Max Temperature 91 °F 86 °F 106 °F (1971)
Min Temperature 62 °F 53 °F 42 °F (1988)
Cooling Degree Days 12    
Growing Degree Days 26 (Base 50)    
Moisture  
Dew Point 46 °F    
Average Humidity 37    
Maximum Humidity 51    
Minimum Humidity 17    
Precipitation  
Precipitation 0.00 in - - ()
Sea Level Pressure  
Sea Level Pressure 29.79 in    
Wind  
Wind Speed 10 mph (SSE)    
Max Wind Speed 20 mph    
Max Gust Speed 25 mph    
Visibility 10 miles    
Events      
Averages and records for this station are not official NWS values.
T = Trace of Precipitation, MM = Missing Value Source: NWS Daily Summary

Daily Weather History Graph

Daily Weather History Graph

Search for Another Location

Airport or City:

Astronomy

Sep. 15, 2019 Rise Set
Actual Time 6:47 AM PDT 7:15 PM PDT
Civil Twilight 6:20 AM PDT 7:42 PM PDT
Nautical Twilight 5:48 AM PDT 8:13 PM PDT
Astronomical Twilight 5:16 AM PDT 8:46 PM PDT
Moon 8:25 PM PDT (9/15) 8:02 AM PDT (9/15)
Length of Visible Light 13h 21m
Length of Day
12h 27m
Full, 98% of the Moon is Illuminated
Sep 15
Full
Sep 21
Last Quarter
Sep 28
New
Oct 5
First Quarter
Oct 13
Full

Hourly Weather History & Observations

Time (PDT) Temp. Dew Point Humidity Pressure Visibility Wind Dir Wind Speed Gust Speed Precip Events Conditions
12:53 AM 73.0 °F 48.0 °F 41% 29.83 in 10.0 mi East 5.8 mph - N/A   Clear
1:53 AM 69.1 °F 48.0 °F 47% 29.82 in 10.0 mi South 10.4 mph - N/A   Clear
2:53 AM 68.0 °F 46.0 °F 45% 29.82 in 10.0 mi SSE 8.1 mph - N/A   Clear
3:53 AM 66.0 °F 45.0 °F 47% 29.81 in 10.0 mi SE 8.1 mph - N/A   Clear
4:53 AM 64.9 °F 43.0 °F 45% 29.81 in 10.0 mi ESE 5.8 mph - N/A   Clear
5:53 AM 64.0 °F 43.0 °F 46% 29.81 in 10.0 mi ESE 6.9 mph - N/A   Clear
6:53 AM 62.1 °F 43.0 °F 50% 29.82 in 10.0 mi SE 8.1 mph - N/A   Clear
7:53 AM 64.0 °F 43.0 °F 46% 29.83 in 10.0 mi SSE 5.8 mph - N/A   Clear
8:53 AM 70.0 °F 45.0 °F 41% 29.83 in 10.0 mi SSE 9.2 mph - N/A   Clear
9:53 AM 73.9 °F 45.0 °F 35% 29.83 in 10.0 mi SE 9.2 mph - N/A   Clear
10:53 AM 82.9 °F 39.9 °F 22% 29.82 in 10.0 mi SSE 13.8 mph 21.9 mph N/A   Clear
11:53 AM 84.9 °F 44.1 °F 24% 29.81 in 10.0 mi South 15.0 mph - N/A   Clear
12:53 PM 86.0 °F 48.0 °F 27% 29.79 in 10.0 mi South 10.4 mph - N/A   Clear
1:53 PM 88.0 °F 50.0 °F 27% 29.78 in 10.0 mi South 9.2 mph 16.1 mph N/A   Clear
2:53 PM 91.0 °F 42.1 °F 18% 29.75 in 10.0 mi South 18.4 mph 25.3 mph N/A   Clear
3:53 PM 90.0 °F 46.0 °F 22% 29.73 in 10.0 mi SSE 17.3 mph - N/A   Clear
4:53 PM 90.0 °F 39.9 °F 17% 29.71 in 10.0 mi SSE 17.3 mph - N/A   Clear
5:53 PM 86.0 °F 41.0 °F 20% 29.72 in 10.0 mi South 18.4 mph - N/A   Clear
6:53 PM 81.0 °F 48.9 °F 33% 29.73 in 10.0 mi SSE 19.6 mph - N/A   Clear
7:53 PM 77.0 °F 51.1 °F 40% 29.74 in 10.0 mi SSE 19.6 mph - N/A   Clear
8:53 PM 75.0 °F 51.1 °F 43% 29.76 in 10.0 mi SSE 16.1 mph - N/A   Clear
9:53 PM 73.0 °F 51.1 °F 46% 29.78 in 10.0 mi SSE 17.3 mph 25.3 mph N/A   Clear
10:53 PM 72.0 °F 50.0 °F 46% 29.79 in 10.0 mi SE 12.7 mph - N/A   Clear
11:53 PM 70.0 °F 51.1 °F 51% 29.79 in 10.0 mi SSE 10.4 mph - N/A   Clear